Location: Unspecified
(58.7730°N, 5.8460°E)
Time: 22:02:38
(UTC+01:00)

Okean 3 - Visible Passes

Search period start: 23 November 2014 00:00
Search period end: 03 December 2014 00:00
Orbit: 581 x 610 km, 82.5° (Epoch: 23 November)

Date Brightness Start Highest point End Pass type
(mag) Time Alt. Az. Time Alt. Az. Time Alt. Az.
23 Nov 4.1 16:54:04 10° SSE 16:58:00 37° E 17:01:55 10° NNE visible
23 Nov 4.9 18:31:28 10° SW 18:35:25 37° WNW 18:39:23 10° N visible
24 Nov 3.7 17:03:46 10° S 17:07:54 52° E 17:12:02 10° NNE visible
24 Nov 5.4 18:41:52 10° WSW 18:45:33 28° WNW 18:49:13 10° N visible
25 Nov 3.4 17:13:36 10° S 17:17:50 73° E 17:22:04 10° NNE visible
25 Nov 5.8 18:52:26 10° WSW 18:55:43 21° WNW 18:59:00 10° N visible
26 Nov 3.6 17:23:34 10° SSW 17:27:49 81° WNW 17:32:04 10° NNE visible
26 Nov 6.2 19:03:10 10° W 19:05:55 17° NW 19:08:41 10° NNW visible
27 Nov 4.1 17:33:38 10° SSW 17:37:49 58° WNW 17:42:01 10° N visible
27 Nov 6.3 19:14:09 10° WNW 19:16:10 13° NW 19:18:11 10° NNW visible
28 Nov 4.6 17:43:50 10° SW 17:47:52 42° WNW 17:51:55 10° N visible
28 Nov 6.6 19:26:00 10° NW 19:26:27 10° NW 19:26:54 10° NW visible
29 Nov 5.2 17:54:09 10° SW 17:57:57 32° WNW 18:01:46 10° N visible
30 Nov 5.6 18:04:36 10° WSW 18:08:04 24° WNW 18:11:33 10° N visible
01 Dec 3.5 16:36:01 10° S 16:40:15 85° ESE 16:44:29 10° NNE visible
01 Dec 5.9 18:15:12 10° WSW 18:18:14 19° NW 18:21:16 10° N visible
02 Dec 3.8 16:46:00 10° SSW 16:50:12 69° WNW 16:54:26 10° N visible
02 Dec 6.1 18:26:01 10° W 18:28:26 15° NW 18:30:51 10° NNW visible
